GFSNIL_sfc_thetae_132.txt.gz
Theta_e
323 323 322 322 322 322 322 323 324 324 325 324 324 322 321 319 318 317 316 316 317 315
323 323 322 322 323 323 323 324 324 324 324 325 324 323 322 320 318 317 316 316 316 316
323 324 324 324 323 323 324 325 324 324 324 324 324 324 323 322 321 318 317 317 316 316
315 317 321 324 325 324 325 325 324 324 325 324 323 323 322 322 321 319 318 317 315 314
300 304 309 315 318 320 323 326 325 325 324 324 324 323 321 321 320 318 316 313 312 311
298 298 300 302 307 312 314 317 319 321 322 323 323 322 321 321 320 315 316 313 310 310
297 298 299 299 301 303 305 306 310 311 316 317 318 317 317 316 315 313 313 311 308 307
297 297 296 296 298 301 302 301 302 303 306 307 307 305 304 304 308 307 306 302 303 304
294 293 293 293 294 295 295 295 296 296 297 299 298 298 299 301 303 300 298 298 298 297
290 290 290 290 290 290 292 292 292 292 292 293 295 295 296 295 296 295 296 294 290 287
289 288 288 288 289 290 291 290 291 291 291 290 291 294 295 293 292 290 290 289 288 288
287 283 288 288 290 290 289 288 287 287 288 287 288 292 294 290 288 287 286 286 287 288
286 284 286 288 287 286 285 285 285 286 286 286 287 291 292 289 286 285 284 285 285 286
281 281 286 286 284 285 285 284 285 284 284 285 286 287 292 290 286 285 284 284 283 284

GFSNIL_sfc_thetae_138.txt.gz
Theta_e
322 322 322 321 321 320 320 320 319 319 320 320 320 320 320 319 319 318 318 316 317 318
320 321 321 321 320 321 320 320 318 318 318 319 319 320 320 320 319 320 319 318 318 318
318 319 319 318 318 319 319 317 316 317 319 320 321 321 320 320 321 320 319 319 318 317
313 314 315 316 316 316 316 317 318 320 320 320 320 321 321 321 321 319 319 319 317 317
307 308 310 311 312 314 318 319 319 320 320 321 321 321 320 320 320 320 319 318 318 317
296 296 296 296 297 299 300 301 303 306 311 312 314 315 317 319 319 319 319 319 317 317
295 296 296 296 296 296 297 298 301 302 303 303 304 305 305 306 309 313 316 314 312 311
294 295 295 294 294 296 299 298 298 298 298 299 299 299 298 298 300 303 305 305 304 303
293 292 292 291 291 295 294 295 295 293 294 292 293 295 295 295 296 297 296 297 297 296
290 289 289 289 288 288 289 290 289 289 290 289 291 294 295 293 292 292 293 291 291 291
288 288 288 288 288 290 288 288 287 287 286 286 287 292 293 292 290 290 289 289 289 289
288 285 287 289 289 290 286 286 287 286 285 285 286 290 292 291 288 287 287 287 286 288
285 287 287 288 288 286 286 286 285 285 285 285 286 289 292 289 286 285 285 285 285 286
283 286 287 286 285 285 285 285 285 283 284 285 285 286 292 290 285 285 283 283 284 285

GFSNIL_sfc_thetae_141.txt.gz
Theta_e
325 325 324 324 323 322 323 322 323 322 323 323 323 322 322 320 320 319 318 318 319 319
323 323 323 324 324 323 323 322 321 321 321 322 322 322 321 320 320 320 319 318 318 318
321 322 323 322 321 321 322 321 320 320 320 320 320 321 321 320 320 320 320 320 319 319
318 319 319 320 320 320 320 319 319 320 320 320 320 321 320 320 320 319 319 319 318 317
312 313 315 316 316 317 317 319 319 320 320 320 320 320 320 319 320 319 318 318 318 318
308 308 309 309 308 306 306 305 306 309 311 311 311 311 312 312 312 315 316 317 317 317
300 299 298 297 298 299 300 301 303 304 304 304 305 305 304 303 304 305 308 309 310 308
295 296 296 296 296 297 299 299 299 300 300 300 301 299 299 297 299 299 301 301 303 302
294 294 294 294 294 295 295 297 297 297 295 295 293 294 294 296 297 297 295 296 296 296
291 291 291 290 290 291 293 294 291 292 292 291 292 294 294 292 293 293 294 291 291 291
289 289 289 289 289 290 290 289 289 289 289 289 289 292 292 292 291 291 291 291 290 291
288 288 288 287 290 290 287 288 288 288 287 287 287 291 292 291 289 288 288 288 289 289
287 287 288 289 289 287 287 286 286 286 286 286 286 290 292 289 286 286 286 287 286 286
286 288 289 289 287 287 286 286 286 286 285 286 285 287 292 291 287 286 285 285 285 286

GFSNIL_sfc_thetae_144.txt.gz
Theta_e
332 331 331 331 330 329 329 329 330 329 329 329 328 328 327 324 323 323 322 321 320 319
330 330 330 330 331 330 330 329 329 328 328 328 328 327 327 324 322 322 321 320 320 319
328 329 329 329 328 329 329 328 327 327 327 327 327 327 326 324 323 322 322 321 320 319
326 326 328 328 328 327 328 327 326 326 326 325 325 325 325 323 323 321 320 320 320 320
324 324 324 325 326 326 326 326 325 325 324 324 324 323 323 321 321 321 319 319 319 319
320 320 321 322 323 323 323 323 321 322 321 321 320 319 319 315 314 315 316 316 317 315
318 319 320 320 319 317 313 312 313 313 314 313 312 311 309 306 305 306 307 308 308 310
316 317 314 309 307 306 306 306 306 306 305 306 305 303 303 301 301 300 301 301 302 301
307 303 302 302 302 302 302 302 302 302 301 301 297 294 294 298 300 299 297 297 298 297
300 298 299 298 298 298 299 300 299 298 298 297 297 294 294 293 297 297 297 295 293 293
296 296 295 294 294 295 295 295 295 294 295 295 293 292 293 292 296 296 294 292 292 291
295 293 293 293 294 293 293 292 292 291 291 290 290 291 292 292 291 290 289 289 290 290
294 293 292 293 292 292 291 289 290 288 289 288 288 291 292 291 290 287 288 288 288 287
291 291 293 292 292 290 288 288 288 287 287 287 287 290 291 290 289 289 288 288 287 288

GFSNIL_sfc_thetae_147.txt.gz
Theta_e
332 332 332 332 332 331 331 331 333 332 331 331 330 330 329 326 324 323 322 321 320 320
331 332 331 332 332 332 332 331 332 331 330 330 330 329 328 325 322 321 321 321 321 320
329 331 332 332 331 331 332 331 330 330 330 329 329 329 326 324 323 321 320 320 320 320
328 329 330 330 331 331 331 330 329 328 328 328 327 326 324 322 321 320 319 320 318 318
326 327 327 328 329 330 329 329 329 328 327 326 325 324 323 322 320 319 318 318 318 317
324 324 325 326 327 327 327 327 327 326 324 323 323 322 322 321 318 318 316 315 315 314
321 322 323 324 324 324 325 324 323 323 322 321 318 315 311 310 311 309 309 307 306 307
319 321 321 321 321 321 320 318 317 316 315 314 313 309 306 305 306 304 303 302 302 302
317 317 317 318 316 312 310 311 308 306 305 304 299 295 297 300 301 300 299 298 299 298
313 310 308 304 302 301 303 303 301 301 301 299 298 294 295 294 299 299 299 297 294 293
300 300 299 299 298 298 299 298 297 297 298 297 295 294 294 292 297 297 296 293 292 292
297 296 296 295 296 297 295 295 294 293 293 292 290 292 293 293 291 290 290 290 290 291
297 295 295 295 294 293 293 291 290 289 290 289 289 292 292 292 289 287 287 287 287 287
294 294 295 294 292 291 289 289 288 288 288 288 288 290 293 292 289 289 288 287 286 287